Other Public Products
Issued by NWS Grand Forks, ND

Home | Current Version | Previous Version | Text Only | Print | Product List | Glossary On
Versions: 1 2 3 4 5 6 7 8 9 10 11 12 13 14 15 16 17 18 19 20 21 22 23 24 25 26 27 28 29 30 31 32 33 34 35 36 37 38 39 40 41 42 43 44 45 46 47 48 49 50
000
FPUS83 KFGF 181631
OPUFGF
PRAIRIE TO PINES WEATHER ROUNDUP
NATIONAL WEATHER SERVICE EASTERN NORTH DAKOTA/GRAND FORKS ND
1000 AM CST SAT NOV 18 2017

 **SATELLITE DATA USED TO AUGMENT SKY COVER AT AUTOMATED STATIONS**
 *****  WEATHER ACROSS EASTERN NORTH DAKOTA  *****

CITY           SKY/WX    TMP DP  RH WIND       PRES   REMARKS
GRAND FORKS    PTSUNNY   17  11  77 NW13      30.02R WCI   4
GRND FORKS AFB FAIR      17   9  70 NW16      30.02R WCI   2
GRND FORKS NWS   N/A     18 N/A N/A N7          N/A  WCI   8
BUXTON           N/A     20  13  75 NW24        N/A  WCI   2
DEVILS LAKE    FAIR      13   8  81 NW21      30.01R WCI  -5
FARGO          PTSUNNY   22  12  65 NW18      30.03R WCI   7
WAHPETON ARPT  NOT AVBL
$$

 *****  WEATHER ACROSS CENTRAL AND WESTERN NORTH DAKOTA  *****

CITY           SKY/WX    TMP DP  RH WIND       PRES   REMARKS
JAMESTOWN      FAIR      19  12  74 NW24      30.02R WCI   2
BISMARCK       CLOUDY    24  18  77 NW16G24   30.12R WCI  11
MINOT          FAIR      16   7  67 W16       30.08R WCI   1
MINOT AFB      FAIR      14   7  72 NW16G28   30.07R WCI  -2
GARRISON         N/A     15   9  76 NW18      30.11R WCI  -2
WILLISTON      FAIR      18  10  71 W10       30.14R WCI   6
DICKINSON      FAIR      17  12  80 NW12      30.09R WCI   4
HETTINGER      FAIR      18  12  77 W14       30.12S WCI   4
$$

 *****  OTHER OBSERVATIONS NORTHEAST NORTH DAKOTA  *****

CITY           SKY/WX    TMP DP  RH WIND       PRES   REMARKS
WALHALLA       FAIR      14   7  73 NW17G23   30.01R WCI  -3
LANGDON        FAIR      14   9  79 NW24G32   29.96R WCI  -5
CAVALIER       FAIR      16   7  67 NW18G25   30.01R WCI  -1
GRAFTON        PTSUNNY   16   9  73 NW13      30.04R WCI   2
CANDO          FAIR      14   7  73 W21       30.04S WCI  -4
FORT TOTTEN      N/A     16   8  71 NW10      29.95S WCI   4
ROLLA          FAIR      12   1  62 NW18G24   30.00R WCI  -5
RUGBY          FAIR      12   7  79 NW18G25   30.05S WCI  -5
 ***** THE ABOVE OBSERVATIONS ARE NON NWS ARE NOT QUALITY
        CONTROLLED AND MAY MIS-REPORT RAIN FOR SNOW...
$$

 *****  OTHER OBSERVATIONS SOUTHEAST NORTH DAKOTA *****

CITY           SKY/WX    TMP DP  RH WIND       PRES   REMARKS
COOPERSTOWN    FAIR      18  12  79 NW26G32   30.02R WCI  -1
VALLEY CITY    FLURRIES  19  12  73 NW17G24   30.03R WCI   4
OAKES            N/A     21  12  68 NW20      30.04R WCI   6
GWINNER          N/A     23  12  63 NW18      30.03R WCI   9
SHEYENNE NWR     N/A     23  13  64 NW12      29.95S WCI  12
BUFFALO          N/A     19  10  67 SE17        N/A  WCI   4
WYNDMERE       NOT AVBL
 ***** THE ABOVE OBSERVATIONS ARE NON NWS ARE NOT QUALITY
       CONTROLLED AND MAY MIS-REPORT RAIN FOR SNOW...
$$

  *****  WEATHER ACROSS NORTHERN MINNESOTA  *****

CITY           SKY/WX    TMP DP  RH WIND       PRES   REMARKS
FLAG ISLAND    CLOUDY    16  10  79 NW18      29.89R WCI  -1
WARROAD        LGT SNOW  16  12  86 W12       29.92R WCI   3
ROSEAU         FLURRIES  18  12  79 NW14      29.93R WCI   4
HALLOCK        FLURRIES  18  12  79 NW12      29.99R WCI   5
THF RVR FALLS  FLURRIES  16  10  79 NW16      29.97R WCI   0
HALSTAD          N/A     20  10  67 NW24        N/A  WCI   2
FOSSTON        CLOUDY    16  10  79 NW14G20   29.96R WCI   1
BAUDETTE       FLURRIES  17  13  84 NW15      29.88R WCI   2
WASKISH        CLOUDY    19  14  79 NW9G17    29.89R WCI   9
CROOKSTON      FLURRIES  18  12  79 N18       30.01R WCI   2
$$
  *****  WEATHER ACROSS CENTRAL AND WEST MINNESOTA  *****

CITY           SKY/WX    TMP DP  RH WIND       PRES   REMARKS
BEMIDJI        CLOUDY    18  12  79 NW18      29.89R WCI   2
PARK RAPIDS    CLOUDY    20  13  74 NW15G25   29.88R WCI   6
WADENA         FAIR      21  16  79 NW17G23   29.90R WCI   7
DETROIT LAKES  FAIR      21  14  73 NW17      29.95R WCI   7
MOORHEAD       FAIR      21  12  68 NW18      30.02R WCI   6
FERGUS FALLS   FAIR      21  14  73 N20G26    30.00S WCI   6
ELBOW LAKE     CLOUDY    22  16  77 W23       29.97R HAZE    WCI   6
MORRIS MN      PTSUNNY   25  18  74 NW20G30   29.95R WCI  11
STAPLES        FAIR      23  14  68 NW20      29.87S WCI   8
WHEATON        PTSUNNY   25  16  68 NW16G28   30.02R WCI  12
$$
  *****  WEATHER ELSEWHERE ACROSS MINNESOTA  *****

CITY           SKY/WX    TMP DP  RH WIND       PRES   REMARKS
DULUTH         FAIR      23  19  85 NW18G24   29.74S WCI   9
INTRNTL FALLS  LGT SNOW  21  14  74 NW10      29.84R VSB 1   WCI  10
ELY            CLOUDY    23  18  80 NW3       29.76S
CLOQUET        FAIR      25  18  74 NW15      29.78R WCI  12
BRAINERD       FAIR      25  16  68 NW12      29.86R WCI  14
HIBBING        CLOUDY    21  16  81 NW14      29.79F WCI   8
ALEXANDRIA     FAIR      25  16  68 NW15G25   29.90R WCI  13
SAINT CLOUD    FAIR      28  21  75 NW15      29.85R WCI  16
MINNEAPOLIS    FAIR      34  27  75 NW14      29.81R WCI  25
$$

  *****  WEATHER ACROSS SOUTH DAKOTA  *****

CITY           SKY/WX    TMP DP  RH WIND       PRES   REMARKS
SIOUX FALLS    FAIR      36  23  59 N23       29.95R
BROOKINGS      PTSUNNY   29  20  69 N21       29.95R WCI  16
WATERTOWN      CLOUDY    25  16  68 NW18G26   29.98R WCI  11
HURON          FAIR      30  20  66 NW14      30.05R WCI  19
SISSETON         N/A     24  15  68 NW23G35   29.99R WCI   9
ABERDEEN       FAIR      24  15  68 NW22      30.07R WCI   9
MITCHELL       PTSUNNY   33  26  75 NW18      30.07R WCI  22
PIERRE         PTSUNNY   30  22  72 N17       30.13R WCI  18
MOBRIDGE       FAIR      24  15  68 NW14      30.10R WCI  12
RAPID CITY     FAIR      39  18  42 NW12G17   30.13R
$$

  *****  SOME WEATHER IN NEARBY STATES *****

CITY           SKY/WX    TMP DP  RH WIND       PRES   REMARKS
GLASGOW MT     CLOUDY    17  13  84 CALM      30.11F
GREAT FALLS MT FAIR      36  19  50 SW24G35   30.11S
CHEYENNE WY    FAIR      25  12  58 W5        30.20R WCI  19
SCOTTSBLUFF NE FAIR      34  20  56 W14       30.23R WCI  25
OMAHA NE       PTSUNNY   40  29  64 NW18      29.90R
DES MOINES IA  CLOUDY    40  35  83 N15       29.78R
DAVENPORT IA   LGT RAIN  38  35  89 N20G28    29.58R
CHICAGO IL     LGT RAIN  41  37  86 N17G32    29.47S FOG
EAU CLAIRE WI  CLOUDY    35  30  82 NW10      29.72F
LA CROSSE WI   CLOUDY    38  33  82 N20       29.69S
$$

  *****  SOME NATIONAL WEATHER *****

CITY           SKY/WX    TMP DP  RH WIND       PRES   REMARKS
LA GUARDIA NY  CLOUDY    48  31  51 S15G23    29.88F
RALEIGH NC     PTSUNNY   58  40  51 SW16      29.97F
ATLANTA GA     FAIR      61  53  75 S13       29.98F
NEW ORLEANS LA PTSUNNY   78  69  73 S15G22    29.93F
OKLAHOMA CITY  PTSUNNY   55  40  56 N35G46    29.98R
ALBUQUERQUE NM FAIR      39   9  29 N14       30.36R
SALT LAKE CITY FAIR      33  21  61 SE9       30.46S
LOS ANGELES CA FAIR      62  53  72 N5        30.16R
BOISE ID       FAIR      33  23  66 SE10      30.41R WCI  25
SEATTLE WA     CLOUDY    45  38  76 S7        30.28F
$$

*** WEATHER ACROSS MANITOBA...SASKATCHEWAN AND ONTARIO ***
                ***ONTARIO***

CITY           SKY/WX    TMP DP  RH WIND       PRES   REMARKS
GERALDTON      LGT SNOW  19  18  93 N12       29.67S FOG     WCI   7
THUNDER BAY    CLOUDY    27  23  86 NW9       29.73S WCI  17
SIOUX LOOKOUT  FLURRIES  16  12  86 NW8       29.77R WCI   5
TORONTO        CLOUDY    45  41  87 S5        29.48F FOG
BIG TROUT LK   FLURRIES  12   9  85 W10G17    29.68S WCI  -1
PICKLE LAKE    FLURRIES  14  10  85 W3        29.72F
DRYDEN         LGT SNOW  16  14  93 W6        29.80R WCI   7
KENORA         SNOWSHWR  16  12  86 NW8       29.84R WCI   5
$$
                *** MANITOBA***

CITY           SKY/WX    TMP DP  RH WIND       PRES   REMARKS
BRANDON        MOSUNNY    7   0  72 W21       30.00R WCI -13
DAUPHIN        SUNNY      7   1  78 W24G30    29.95F WCI -15
ISLAND LAKE    FLURRIES   9   1  72 W20G26    29.77S WCI -11
PILOT MOUND      N/A     10   3  72 W12G18      N/A  WCI  -4
THE PAS        FLURRIES  10   3  72 W21       29.87R WCI  -9
THOMPSON       PTCLDY     5  -2  72 W13G20    29.69S WCI -12
WINNIPEG       FLURRIES  14   7  73 NW13      29.98R WCI   0
LYNN LAKE      MOCLDY     7   1  78 W15G24    29.67R WCI -11
CHURCHILL      CRYSTALS   0  -8  71 SW15      29.48S WCI -20
GILLAM         MOCLDY     1  -6  71 W20G30    29.62  WCI -20
$$
                ***SASKATCHEWAN***

CITY           SKY/WX    TMP DP  RH WIND       PRES   REMARKS
ESTEVAN        FLURRIES  12   7  79 W14       30.08S WCI  -3
KINDERSLEY     CRYSTALS  -2  -6  84 SW9       29.97S FOG     WCI -18
LLOYDMINSTER   MOCLDY     1  -2  85 S5        29.91R WCI  -8
PRINCE ALBERT  MOCLDY     0  -8  71 W6        30.00F WCI -12
REGINA         FLURRIES   5   1  85 S6        30.05S WCI  -6
YORKTON        SUNNY      3  -4  72 SW8       29.99S W



USA.gov is the U.S. government's official web portal to all federal, state and local government web resources and services.